Flag for Brazil Weather past 2 weeks in Belo Horizonte, Minas Gerais, Brazil

Now
75 °F

Passing clouds.


Feels Like: 77 °F
Forecast: 69 / 84 °F
Wind: 2 mph from South

Location: Belo Horizonte Airport

Current Time: Apr 19, 2015 at 10:40:35 PM

Latest Report: Apr 19, 2015 at 10:00 PM


Visibility: N/A

Pressure: 30.07 "Hg

Humidity: 69%

Dew point: 64 °F

Location of Belo HorizonteLocation

Historic Weather in Belo Horizonte — Graph

°F

Belo Horizonte temperature yesterday

Maximum temperature yesterday: 82 °F (at 1:00 PM)
Minimum temperature yesterday: 68 °F (at 4:00 AM)
Average temperature yesterday: 75 °F

Past Weeks' High & Low Weather Summary

 TemperatureHumidityPressure
High86 °F (Apr 19, 1:00 PM)94% (Apr 5, 7:00 AM)30.21 "Hg (Apr 5, 7:00 AM)
Low61 °F (Apr 10, 3:00 AM)30% (Apr 15, 2:00 PM)29.89 "Hg (Apr 6, 2:00 PM)
Average72 °F70%30.08 "Hg
* Reported Apr 4 9:00 PM — Apr 19 9:00 PM, Belo Horizonte, Weather by CustomWeather, © 2015

Note: Actual official high and low records may vary slightly from our data, if they occured in-between our weather recording intervals... More about our weather records

Advertising

Belo Horizonte weather history for previous 24 hours

 ConditionsComfort  
Time TempWeatherWind HumidityBarometerVisibility
9:00 PM
Sun, Apr 19
75 °FClear.5 mph69%30.07 "Hg10 mi
8:00 PM77 °FClear.5 mph65%30.04 "Hg10 mi
7:00 PM79 °FClear.9 mph58%30.04 "Hg10 mi
6:00 PM81 °FClear.9 mph54%29.98 "Hg10 mi
5:00 PM82 °FScattered clouds.8 mph48%29.98 "HgN/A
4:00 PM86 °FScattered clouds.3 mph43%29.98 "HgN/A
3:00 PM86 °FScattered clouds.7 mph43%29.98 "HgN/A
2:00 PM86 °FScattered clouds.1 mph40%30.01 "HgN/A
1:00 PM86 °FPassing clouds.3 mph40%30.04 "HgN/A
12:00 PM84 °FPassing clouds.3 mph48%30.07 "HgN/A
11:00 AM81 °FPassing clouds.3 mph54%30.07 "HgN/A
10:00 AM79 °FPassing clouds.3 mph61%30.09 "HgN/A
9:00 AM75 °FPassing clouds.5 mph69%30.09 "HgN/A
8:00 AM68 °FSunny.3 mph88%30.07 "Hg10 mi
7:00 AM68 °FSunny.2 mph88%30.07 "Hg10 mi
6:00 AM66 °FClear.2 mph88%30.04 "Hg10 mi
5:00 AM66 °FClear.1 mph88%30.01 "Hg10 mi
4:00 AM68 °FClear.3 mph83%30.01 "Hg10 mi
3:00 AM68 °FClear.5 mph88%30.04 "Hg10 mi
2:00 AM68 °FClear.3 mph88%30.04 "Hg10 mi
1:00 AM68 °FClear.2 mph88%30.07 "Hg10 mi
12:00 AM72 °FClear.3 mph78%30.07 "Hg10 mi
11:00 PM
Sat, Apr 18
72 °FClear.2 mph78%30.07 "Hg10 mi
10:00 PM72 °FClear.3 mph78%30.07 "Hg10 mi
Weather by CustomWeather, © 2015

See weather overviewHow to use our weather pages